Regional Weather Roundup
Issued by NWS

Home | Current Version | Previous Version | Text Only | Print | Product List | Glossary On
Versions: 1 2 3 4 5 6 7 8 9 10 11 12 13 14 15 16 17 18 19 20 21 22 23 24 25 26 27 28 29 30 31 32 33 34 35 36 37 38 39 40 41 42 43 44 45 46 47 48 49 50
000
ASUS46 KSEW 111110
RWRWA

WASHINGTON REGIONAL WEATHER ROUNDUP
NATIONAL WEATHER SERVICE SEATTLE WA
300 AM PST THU FEB 11 2016

NOTE:"FAIR" INDICATES FEW OR NO CLOUDS BELOW 12,000 FEET WITH NO
SIGNIFICANT WEATHER AND/OR OBSTRUCTIONS TO VISIBILITY.

WAZ505-507>509-111200-
SEATTLE, TACOMA, EVERETT, AND VICINITY

CITY           SKY/WX    TMP DP  RH WIND       PRES   REMARKS
EVERETT        CLOUDY    47  42  83 E6        30.24F
BOEING FIELD   CLOUDY    45  43  93 CALM      30.24F
RENTON         CLOUDY    46  44  93 CALM      30.23F FOG
SEATAC AIRPORT CLOUDY    48  45  89 NE7       30.23F
JBLM-MCCHORD   FOG       42  42 100 S2        30.22F VSB 3/4
PUYALLUP       MOCLDY    45  45 100 CALM      30.22F FOG
BREMERTON      CLOUDY    46  46 100 NE7       30.27F
JBLM-FT LEWIS  MOCLDY    45  45 100 CALM      30.22F FOG
TACOMA NARROWS CLOUDY    48  46  93 N6        30.22F
$$

WAZ001-503-506-510-514-515-111200-
NORTH INTERIOR

CITY           SKY/WX    TMP DP  RH WIND       PRES   REMARKS
BELLINGHAM     FOG       39  38  96 N3        30.27F VSB 3/4
FRIDAY HARBOR  MOCLDY    45  44  97 N3        30.27F
EASTSOUND      MOCLDY    46  46 100 NE3       30.26S FOG
PORT ANGELES   CLOUDY    42  40  92 CALM      30.24S
EDIZ HOOK      FAIR      45  44  95 CALM      30.24S
PORT TOWNSEND  FOG       41  41 100 E5        30.25F VSB 1
NAS WHIDBEY    FOG       43  43 100 SE7       30.29F VSB 1/2
ARLINGTON      MOCLDY    43  37  81 CALM      30.28F
BURLINGTON     CLOUDY    46  45  93 NE8       30.27F
$$

WAZ020-022-039-040-504-511-512-111200-
SOUTHWEST INTERIOR

CITY           SKY/WX    TMP DP  RH WIND       PRES   REMARKS
SHELTON        FOG       45  45 100 CALM      30.20F VSB 1/2
OLYMPIA        FOG       44  43  96 N3        30.22F VSB 1/4
CHEHALIS       CLOUDY    46  46 100 NE3       30.20F
KELSO          CLOUDY    48  45  87 CALM      30.22S
VANCOUVER      CLOUDY    47  45  93 CALM      30.17F
SCAPPOOSE, OR  CLOUDY    50  48  93 CALM      30.17F
PORTLAND, OR   CLOUDY    49  45  86 CALM      30.18F
$$

WAZ021-516-517-111200-
WASHINGTON COAST

CITY           SKY/WX    TMP DP  RH WIND       PRES   REMARKS
FORKS          CLOUDY    44  42  93 NE3       30.19S
HOQUIAM        CLOUDY    50  48  93 NE7       30.17F
ASTORIA, OR    CLOUDY    50  49  96 E3        30.14F
$$

WAZ019-023-024-040-518-519-111200-
CASCADE MOUNTAINS AND COLUMBIA GORGE

CITY           SKY/WX    TMP DP  RH WIND       PRES   REMARKS
STAMPEDE PASS  NOT AVBL
TROUTDALE, OR  CLOUDY    52  44  74 NE7       30.17F
THE DALLES, OR CLOUDY    42  39  89 W5        30.28S
$$

WAZ026-027-041>044-520-521-111200-
EAST SLOPES

CITY           SKY/WX    TMP DP  RH WIND       PRES   REMARKS
OMAK           CLOUDY    34  31  88 NW5       30.33F
WENATCHEE      CLOUDY    33  30  88 CALM      30.33S
ELLENSBURG     CLOUDY    33  28  81 CALM      30.29S
YAKIMA         CLOUDY    37  32  82 NW3       30.31R
$$

WAZ028-034-035-111200-
COLUMBIA BASIN

CITY           SKY/WX    TMP DP  RH WIND       PRES   REMARKS
EPHRATA        CLOUDY    35  33  92 N7        30.32S
MOSES LAKE     CLOUDY    33  31  92 N6        30.33S FOG
PASCO          CLOUDY    39  36  89 CALM      30.32F
HERMISTON, OR  CLOUDY    41  38  89 NE3       30.28F
$$

WAZ036>038-111200-
NORTHEAST WASHINGTON

CITY           SKY/WX    TMP DP  RH WIND       PRES   REMARKS
SPOKANE GEIGER CLOUDY    32  31  96 N6        30.30R FOG
SPOKANE FELTS  MOCLDY    35  33  92 CALM      30.32R FOG
FAIRCHILD AFB  FOG       32  32 100 N9        30.29R VSB 3/4
COEURDALENE,ID MOCLDY    32  28  86 NE6       30.29R
DEER PARK      CLOUDY    33  32  96 CALM      30.32S
$$

WAZ029>033-111200-
SOUTHEAST WASHINGTON

CITY           SKY/WX    TMP DP  RH WIND       PRES   REMARKS
PULLMAN        CLOUDY    42  34  73 CALM      30.32S
LEWISTON, ID   CLOUDY    47  33  58 CALM      30.32S
WALLA WALLA    CLOUDY    47  40  76 E5        30.28S
PENDLETON, OR  CLOUDY    43  36  76 NE8       30.27S
$$



USA.gov is the U.S. government's official web portal to all federal, state and local government web resources and services.